カタログに戻る

THORAD AGENA D DEB

LostSSO
NORAD 42542·DEBRIS·🇺🇸 United States

打ち上げ Apr 8, 1970 から Vandenberg Space Force Base

Loading…

次のパス (今後24時間)

TLE

古いSource: Space-Track

元期: Apr 5, 2024, 00:40 UTC

1 42542U 70025SY  24096.02815660  .00004042  00000-0  21281-2 0  9996
2 42542  99.0525 183.2614 0103457  74.8336 286.4250 14.11846878587561

AllMySatでTHORAD AGENA D DEBをリアルタイム追跡

Download on the App Store